Location: Martley
(52.2333°N, 2.3667°W)
Time: 20:16:59
(UTC+00:00)

Cosmos 2266 Rocket - Pass Details

Date: 11 December 2019
Orbit: 933 x 1009 km, 82.9° (Epoch: 26 January)

Event Time Altitude Azimuth Distance (km) Brightness Sun altitude
Rises 06:12:13 0° 349° (N) 3,707 6.8 -16.5°
Reaches altitude 10° 06:14:46 10° 351° (N) 2,744 6.1 -16.2°
Maximum altitude 06:21:04 84° 79° (E) 977 4.0 -15.2°
Drops below altitude 10° 06:27:13 10° 169° (S) 2,673 6.7 -14.4°
Sets 06:29:40 0° 170° (S) 3,605 7.4 -14.0°
